Find Starlink 34636

NORAD ID: 64915 Int'l Des: 2025-157 Owner: SPXS Country: US Constellation: starlink operational
LEOCIRCULAR

当前视图

正在加载3D地球...

About Starlink 34636

Starlink 34636 (NORAD 64915) is a starlink constellation satellite (v2 mini) launched Jul 26, 2025 by SPXS of US. It operates in LEO, CIRCULAR orbit with a mass of 575.00 kg.

即将过境

Passes for default location (London). Set your location on the main map for personalized predictions.

高度历史

Loading altitude history...

两行轨道根数

1 64915U 25157M 26263.15376319 .00017750 00000-0 53504-3 0 9999
2 64915 53.1584 159.0997 0001305 91.1713 268.9439 15.34411736 65944
Epoch: Sep 20, 2026 • Age: 16 hours

当前状态

高度 463.1 km
远地点 / 近地点 N/A
速度 7.64 km/s
星下点 3.15°N, 131.39°W
发射日期 Jul 26, 2025
运行时间 1.1 years
类型 internet

技术详情

分类 Payload
质量 575.00 kg
干质量 530.00 kg
长度 0.30 m
跨度 29.00 m
形状 ? Box + pan
制造商 SPXS
平台类型 Starlink V2MO
阶段状态 In Orbit
所有者/国家 SPXS/US

Most Searched